contact:dominique.lefevre@mio.osupytheas.fr, maurice.libes@osupytheas.fr, didier.mallarino@osupytheas.fr
Project:EMSO http://www.emso-fr.org/EMSO-France
Depth: 2436.0 m
Title:EMSO Ligure Ouest : Data MII capteur AQUADOPP
Date,Latitude,Longitude,X_East,Y_North,Z_Up,Amplitude_X,Amplitude_Y,Amplitude_Z,Batterie,SoundSpeed,Heading,Pitch,Roll,Pressure,TIS,Speed,Direction
, degrees North, degrees East, m.s-1, m.s-1,m.s-1, 1, 1, 1, Volt, m.s-1, degree, degree, degree, dbar, degree_C, m.s-1, degree
2021-06-26T00:04:03,42.805,6.029,-0.012,-0.021,-0.026,102.0,102.0,100.0,13.3,1505.2,330.1,-0.8,1.8,2470.538,13.28,0.024,209.7
2021-06-26T00:07:03,42.805,6.029,-0.028,-0.021,-0.036,101.0,102.0,101.0,13.4,1505.2,325.6,-0.8,1.8,2470.581,13.28,0.035,233.1
2021-06-26T00:10:03,42.805,6.029,-0.015,-0.01,-0.007,102.0,102.0,100.0,13.4,1505.2,326.0,-0.8,1.8,2470.562,13.28,0.018,236.3
2021-06-26T00:13:03,42.805,6.029,-0.001,-0.044,-0.005,102.0,103.0,100.0,13.3,1505.2,328.7,-0.7,1.8,2470.556,13.28,0.044,181.3
2021-06-26T00:16:03,42.805,6.029,0.001,-0.026,-0.012,102.0,102.0,101.0,13.3,1505.2,326.7,-0.7,1.8,2470.532,13.28,0.026,177.8
2021-06-26T00:19:03,42.805,6.029,-0.021,-0.014,-0.001,103.0,102.0,101.0,13.4,1505.2,326.5,-0.8,1.8,2470.553,13.28,0.025,236.3
2021-06-26T00:22:03,42.805,6.029,0.014,-0.03,-0.011,102.0,102.0,101.0,13.4,1505.2,327.9,-0.8,1.8,2470.538,13.28,0.033,155.0
2021-06-26T00:25:03,42.805,6.029,-0.013,-0.011,-0.012,102.0,102.0,101.0,13.4,1505.2,328.9,-0.7,1.8,2470.506,13.28,0.017,229.8
2021-06-26T00:28:03,42.805,6.029,-0.001,-0.005,-0.007,102.0,103.0,101.0,13.3,1505.2,327.0,-0.8,1.9,2470.532,13.28,0.005,191.3
2021-06-26T00:31:03,42.805,6.029,-0.006,-0.026,-0.041,103.0,104.0,100.0,13.4,1505.2,328.2,-0.7,1.8,2470.533,13.28,0.026,193.0
2021-06-26T00:34:03,42.805,6.029,-0.002,-0.011,-0.002,102.0,102.0,101.0,13.3,1505.2,330.2,-0.8,1.8,2470.501,13.28,0.011,190.3
2021-06-26T00:37:03,42.805,6.029,-0.002,-0.025,-0.028,102.0,103.0,101.0,13.3,1505.2,325.7,-0.7,1.8,2470.492,13.28,0.025,184.6
2021-06-26T00:40:03,42.805,6.029,-0.001,-0.022,0.011,102.0,102.0,101.0,13.3,1505.2,329.8,-0.8,1.8,2470.533,13.28,0.022,182.6
2021-06-26T00:43:03,42.805,6.029,-0.005,-0.04,-0.001,102.0,102.0,101.0,13.4,1505.2,329.6,-0.7,1.8,2470.534,13.28,0.04,187.1
2021-06-26T00:46:03,42.805,6.029,-0.01,-0.032,-0.008,102.0,101.0,101.0,13.4,1505.2,328.0,-0.8,1.8,2470.478,13.28,0.033,197.4
2021-06-26T00:49:03,42.805,6.029,0.011,-0.02,-0.021,102.0,103.0,101.0,13.4,1505.2,327.8,-0.8,1.8,2470.487,13.28,0.022,151.2
2021-06-26T00:52:03,42.805,6.029,0.0,-0.031,-0.024,102.0,103.0,101.0,13.4,1505.2,330.2,-0.7,1.8,2470.496,13.28,0.03,180.0
2021-06-26T00:55:03,42.805,6.029,0.003,-0.017,-0.039,103.0,103.0,100.0,13.3,1505.2,328.5,-0.7,1.8,2470.478,13.28,0.017,170.0
2021-06-26T00:58:03,42.805,6.029,0.016,-0.012,-0.017,104.0,100.0,100.0,13.4,1505.2,328.6,-0.8,1.8,2470.488,13.28,0.02,126.9
2021-06-26T01:04:03,42.805,6.029,0.005,-0.012,-0.014,103.0,102.0,101.0,13.4,1505.2,328.9,-0.8,1.8,2470.517,13.28,0.013,157.4
2021-06-26T01:07:03,42.805,6.029,0.012,0.014,0.012,102.0,103.0,101.0,13.4,1505.2,325.3,-0.8,1.8,2470.527,13.28,0.018,40.6
2021-06-26T01:10:03,42.805,6.029,0.002,-0.017,-0.017,103.0,102.0,101.0,13.4,1505.2,327.4,-0.7,1.8,2470.504,13.28,0.017,173.3
2021-06-26T01:13:03,42.805,6.029,0.007,-0.041,-0.029,102.0,102.0,102.0,13.3,1505.2,329.5,-0.8,1.8,2470.491,13.28,0.041,170.3
2021-06-26T01:16:03,42.805,6.029,0.005,-0.023,0.001,104.0,101.0,101.0,13.3,1505.2,327.4,-0.8,1.8,2470.526,13.28,0.023,167.7
2021-06-26T01:19:03,42.805,6.029,-0.002,-0.041,-0.015,103.0,102.0,100.0,13.4,1505.2,325.2,-0.8,1.8,2470.464,13.28,0.041,182.8
2021-06-26T01:22:03,42.805,6.029,0.015,-0.019,0.0,102.0,103.0,100.0,13.4,1505.2,329.1,-0.8,1.8,2470.508,13.28,0.024,141.7
2021-06-26T01:25:03,42.805,6.029,0.0,-0.018,-0.011,101.0,102.0,101.0,13.4,1505.2,328.5,-0.7,1.8,2470.504,13.28,0.018,180.0
2021-06-26T01:28:03,42.805,6.029,0.002,-0.031,-0.007,102.0,103.0,102.0,13.4,1505.2,327.9,-0.8,1.8,2470.483,13.28,0.031,176.3
2021-06-26T01:31:03,42.805,6.029,-0.019,-0.01,-0.018,104.0,102.0,102.0,13.4,1505.2,326.7,-0.7,1.8,2470.461,13.28,0.021,242.2
2021-06-26T01:34:03,42.805,6.029,0.007,-0.002,-0.008,102.0,104.0,100.0,13.4,1505.2,330.1,-0.7,1.8,2470.475,13.28,0.007,105.9
2021-06-26T01:37:03,42.805,6.029,0.004,-0.035,-0.018,103.0,102.0,101.0,13.4,1505.2,326.7,-0.8,1.9,2470.451,13.28,0.035,173.5
2021-06-26T01:40:03,42.805,6.029,0.011,-0.01,0.004,103.0,103.0,101.0,13.3,1505.2,327.8,-0.7,1.8,2470.463,13.28,0.014,132.3
2021-06-26T01:43:03,42.805,6.029,0.007,-0.028,-0.019,102.0,103.0,102.0,13.3,1505.2,329.4,-0.8,1.8,2470.463,13.28,0.028,166.0
2021-06-26T01:46:03,42.805,6.029,0.003,-0.032,-0.043,104.0,101.0,100.0,13.3,1505.2,324.8,-0.8,1.8,2470.467,13.28,0.032,174.6
2021-06-26T01:49:03,42.805,6.029,0.025,-0.034,-0.013,103.0,103.0,100.0,13.4,1505.2,329.9,-0.7,1.8,2470.487,13.28,0.042,143.7
2021-06-26T01:52:03,42.805,6.029,0.018,-0.047,0.008,102.0,103.0,100.0,13.4,1505.2,330.0,-0.7,1.8,2470.494,13.28,0.05,159.0
2021-06-26T01:55:03,42.805,6.029,-0.009,-0.022,-0.015,103.0,104.0,100.0,13.4,1505.2,325.7,-0.8,1.8,2470.474,13.28,0.023,202.2
2021-06-26T01:58:03,42.805,6.029,-0.014,-0.03,0.006,102.0,102.0,101.0,13.4,1505.2,328.1,-0.8,1.9,2470.459,13.28,0.033,205.0
2021-06-26T02:04:03,42.805,6.029,0.013,-0.013,-0.014,104.0,104.0,100.0,13.4,1505.2,328.0,-0.7,1.8,2470.459,13.28,0.018,135.0
2021-06-26T02:07:03,42.805,6.029,0.022,0.0,-0.01,102.0,102.0,101.0,13.4,1505.2,324.8,-0.7,1.8,2470.48,13.28,0.022,90.0
2021-06-26T02:10:03,42.805,6.029,-0.001,-0.038,-0.01,102.0,105.0,101.0,13.4,1505.2,326.4,-0.7,1.8,2470.494,13.28,0.038,181.5
2021-06-26T02:13:03,42.805,6.029,-0.001,-0.034,-0.015,102.0,103.0,100.0,13.4,1505.2,328.2,-0.8,1.9,2470.455,13.28,0.034,181.7
2021-06-26T02:16:03,42.805,6.029,-0.019,-0.027,-0.025,102.0,103.0,101.0,13.3,1505.2,329.2,-0.8,1.8,2470.453,13.28,0.033,215.1
2021-06-26T02:19:03,42.805,6.029,-0.013,-0.028,-0.008,102.0,101.0,102.0,13.4,1505.2,329.1,-0.7,1.8,2470.422,13.28,0.03,204.9
2021-06-26T02:22:03,42.805,6.029,0.01,-0.033,-0.007,102.0,103.0,101.0,13.4,1505.2,329.1,-0.7,1.8,2470.469,13.28,0.034,163.1
2021-06-26T02:25:03,42.805,6.029,0.042,-0.017,0.002,102.0,102.0,101.0,13.3,1505.2,325.7,-0.8,1.8,2470.399,13.28,0.045,112.0
2021-06-26T02:28:03,42.805,6.029,-0.007,-0.028,-0.003,103.0,102.0,101.0,13.3,1505.2,330.1,-0.7,1.8,2470.452,13.28,0.028,194.0
2021-06-26T02:31:03,42.805,6.029,-0.011,-0.017,-0.022,103.0,103.0,99.0,13.4,1505.2,326.2,-0.7,1.8,2470.457,13.28,0.02,212.9
2021-06-26T02:34:03,42.805,6.029,0.029,-0.023,0.008,103.0,102.0,101.0,13.3,1505.2,326.9,-0.7,1.8,2470.492,13.28,0.037,128.4
2021-06-26T02:37:03,42.805,6.029,0.0,-0.017,0.009,101.0,103.0,101.0,13.3,1505.2,330.0,-0.8,1.8,2470.461,13.28,0.017,180.0
2021-06-26T02:40:03,42.805,6.029,-0.014,-0.016,-0.063,102.0,104.0,100.0,13.4,1505.2,328.8,-0.7,1.9,2470.473,13.28,0.021,221.2
2021-06-26T02:43:03,42.805,6.029,-0.003,-0.044,-0.021,102.0,103.0,101.0,13.4,1505.2,328.4,-0.8,1.8,2470.44,13.28,0.044,183.9
2021-06-26T02:46:03,42.805,6.029,0.008,-0.015,-0.051,105.0,102.0,101.0,13.4,1505.2,327.9,-0.7,1.8,2470.419,13.28,0.017,151.9
2021-06-26T02:49:03,42.805,6.029,0.03,-0.033,0.023,102.0,103.0,101.0,13.4,1505.2,326.6,-0.8,1.8,2470.431,13.28,0.044,137.7
2021-06-26T02:52:03,42.805,6.029,0.026,-0.033,-0.009,102.0,102.0,100.0,13.4,1505.2,328.5,-0.7,1.8,2470.447,13.28,0.042,141.8
2021-06-26T02:55:03,42.805,6.029,0.022,-0.013,-0.015,102.0,103.0,101.0,13.4,1505.2,330.2,-0.7,1.8,2470.465,13.28,0.025,120.6
2021-06-26T02:58:03,42.805,6.029,0.008,-0.025,-0.022,102.0,102.0,101.0,13.4,1505.2,324.9,-0.8,1.8,2470.421,13.28,0.026,162.3
2021-06-26T03:04:03,42.805,6.029,0.01,-0.02,-0.01,102.0,102.0,102.0,13.4,1505.2,325.5,-0.7,1.8,2470.467,13.28,0.022,153.4
2021-06-26T03:07:03,42.805,6.029,0.011,-0.013,-0.01,103.0,103.0,100.0,13.4,1505.2,329.5,-0.8,1.8,2470.477,13.28,0.017,139.8
2021-06-26T03:10:03,42.805,6.029,0.001,-0.028,-0.027,102.0,103.0,100.0,13.3,1505.2,325.0,-0.8,1.8,2470.424,13.28,0.028,178.0
2021-06-26T03:13:03,42.805,6.029,0.001,-0.015,0.009,102.0,101.0,101.0,13.4,1505.2,327.5,-0.7,1.8,2470.441,13.28,0.015,176.2
2021-06-26T03:16:03,42.805,6.029,0.016,-0.019,0.004,102.0,103.0,101.0,13.4,1505.2,326.7,-0.8,1.8,2470.448,13.28,0.024,139.9
2021-06-26T03:19:03,42.805,6.029,0.002,-0.034,0.009,102.0,102.0,101.0,13.4,1505.2,326.5,-0.8,1.8,2470.449,13.28,0.034,176.6
2021-06-26T03:22:03,42.805,6.029,0.004,-0.023,-0.016,101.0,103.0,101.0,13.4,1505.2,327.0,-0.8,1.8,2470.429,13.28,0.023,170.1
2021-06-26T03:25:03,42.805,6.029,-0.012,-0.032,-0.041,101.0,102.0,101.0,13.3,1505.2,327.6,-0.7,1.8,2470.432,13.28,0.034,200.6
2021-06-26T03:28:03,42.805,6.029,0.036,-0.058,-0.027,101.0,102.0,101.0,13.3,1505.2,330.4,-0.7,1.8,2470.413,13.28,0.068,148.2
2021-06-26T03:31:03,42.805,6.029,-0.018,-0.014,-0.011,101.0,102.0,101.0,13.4,1505.2,328.7,-0.7,1.8,2470.436,13.28,0.022,232.1
2021-06-26T03:34:03,42.805,6.029,0.015,-0.025,-0.032,100.0,102.0,101.0,13.3,1505.2,325.8,-0.8,1.9,2470.409,13.28,0.029,149.0
2021-06-26T03:37:03,42.805,6.029,-0.002,-0.026,-0.007,102.0,102.0,101.0,13.4,1505.2,327.8,-0.8,1.8,2470.439,13.28,0.026,184.4
2021-06-26T03:40:03,42.805,6.029,0.004,-0.04,-0.022,102.0,101.0,101.0,13.3,1505.2,326.8,-0.8,1.8,2470.455,13.28,0.04,174.3
2021-06-26T03:43:03,42.805,6.029,0.001,-0.036,-0.01,100.0,103.0,102.0,13.4,1505.2,329.4,-0.8,1.8,2470.443,13.28,0.036,178.4
2021-06-26T03:46:03,42.805,6.029,0.011,-0.021,-0.003,102.0,104.0,100.0,13.4,1505.2,326.3,-0.7,1.8,2470.475,13.28,0.023,152.4
2021-06-26T03:49:03,42.805,6.029,0.002,-0.034,-0.032,103.0,101.0,101.0,13.4,1505.2,325.1,-0.8,1.8,2470.414,13.28,0.034,176.6
2021-06-26T03:52:03,42.805,6.029,0.002,-0.036,-0.019,102.0,102.0,101.0,13.3,1505.2,327.0,-0.8,1.8,2470.433,13.28,0.036,176.8
2021-06-26T03:55:03,42.805,6.029,0.018,-0.02,-0.011,103.0,101.0,101.0,13.4,1505.2,325.2,-0.8,1.8,2470.428,13.28,0.026,138.0
2021-06-26T03:58:03,42.805,6.029,0.0,-0.017,0.006,104.0,101.0,102.0,13.3,1505.2,327.1,-0.8,1.9,2470.409,13.28,0.017,180.0
2021-06-26T04:04:03,42.805,6.029,0.005,-0.015,-0.002,103.0,103.0,100.0,13.4,1505.2,329.4,-0.8,1.8,2470.482,13.28,0.015,161.6
2021-06-26T04:07:03,42.805,6.029,0.009,-0.025,-0.033,101.0,103.0,101.0,13.3,1505.2,324.8,-0.7,1.8,2470.468,13.28,0.026,160.2
2021-06-26T04:10:03,42.805,6.029,-0.018,-0.018,-0.031,103.0,101.0,101.0,13.3,1505.2,327.7,-0.8,1.8,2470.474,13.28,0.025,225.0
2021-06-26T04:13:03,42.805,6.029,0.0,-0.026,-0.011,103.0,102.0,102.0,13.4,1505.2,326.2,-0.8,1.8,2470.415,13.28,0.026,180.0
2021-06-26T04:16:03,42.805,6.029,-0.006,-0.016,-0.016,102.0,103.0,101.0,13.3,1505.2,329.1,-0.8,1.8,2470.47,13.28,0.017,200.6
2021-06-26T04:19:03,42.805,6.029,0.007,-0.034,-0.018,102.0,102.0,102.0,13.4,1505.2,329.7,-0.8,1.8,2470.456,13.28,0.034,168.4
2021-06-26T04:22:03,42.805,6.029,0.014,-0.045,-0.053,104.0,103.0,100.0,13.4,1505.2,326.5,-0.7,1.8,2470.465,13.28,0.047,162.7
2021-06-26T04:25:03,42.805,6.029,0.004,-0.033,-0.006,104.0,102.0,100.0,13.3,1505.2,328.7,-0.8,1.9,2470.416,13.28,0.033,173.1
2021-06-26T04:28:03,42.805,6.029,0.006,-0.032,-0.006,104.0,104.0,100.0,13.4,1505.2,325.0,-0.7,1.8,2470.422,13.28,0.032,169.4
2021-06-26T04:31:03,42.805,6.029,0.011,-0.031,0.005,102.0,103.0,102.0,13.4,1505.2,325.0,-0.8,1.8,2470.443,13.28,0.032,160.5
2021-06-26T04:34:03,42.805,6.029,0.0,-0.017,-0.028,103.0,103.0,101.0,13.4,1505.2,327.3,-0.7,1.8,2470.443,13.28,0.017,180.0
2021-06-26T04:37:03,42.805,6.029,0.009,-0.017,-0.01,105.0,101.0,101.0,13.4,1505.2,330.5,-0.8,1.8,2470.432,13.28,0.019,152.1
2021-06-26T04:40:03,42.805,6.029,-0.009,-0.028,-0.025,102.0,103.0,101.0,13.4,1505.2,329.4,-0.7,1.8,2470.474,13.28,0.029,197.8
2021-06-26T04:43:03,42.805,6.029,-0.011,-0.039,-0.027,104.0,102.0,101.0,13.4,1505.2,324.7,-0.7,1.8,2470.487,13.28,0.04,195.7
2021-06-26T04:46:03,42.805,6.029,0.021,-0.024,0.006,102.0,104.0,101.0,13.4,1505.2,326.2,-0.7,1.8,2470.482,13.28,0.031,138.8
2021-06-26T04:49:03,42.805,6.029,0.008,-0.022,-0.018,103.0,102.0,102.0,13.4,1505.2,328.1,-0.8,1.8,2470.435,13.28,0.023,160.0
2021-06-26T04:52:03,42.805,6.029,0.015,-0.021,-0.005,102.0,102.0,103.0,13.4,1505.2,326.1,-0.7,1.8,2470.472,13.28,0.025,144.5
2021-06-26T04:55:03,42.805,6.029,0.007,-0.016,-0.023,103.0,105.0,100.0,13.4,1505.2,324.9,-0.8,1.8,2470.49,13.28,0.017,156.4
2021-06-26T04:58:03,42.805,6.029,0.019,-0.023,0.0,101.0,102.0,102.0,13.3,1505.2,326.4,-0.8,1.8,2470.494,13.28,0.029,140.4
2021-06-26T05:04:03,42.805,6.029,-0.001,-0.008,-0.006,103.0,102.0,101.0,13.3,1505.2,328.3,-0.7,1.8,2470.498,13.28,0.008,187.1
2021-06-26T05:07:03,42.805,6.029,0.013,-0.041,-0.029,102.0,103.0,101.0,13.4,1505.2,328.5,-0.8,1.8,2470.542,13.28,0.043,162.4
2021-06-26T05:10:03,42.805,6.029,0.007,-0.024,-0.005,103.0,103.0,102.0,13.4,1505.2,330.2,-0.7,1.8,2470.482,13.28,0.025,163.7
2021-06-26T05:13:03,42.805,6.029,0.022,-0.047,-0.006,104.0,102.0,101.0,13.4,1505.2,328.7,-0.7,1.8,2470.518,13.28,0.051,154.9
2021-06-26T05:16:03,42.805,6.029,0.019,-0.038,-0.028,103.0,103.0,101.0,13.4,1505.2,325.4,-0.7,1.8,2470.488,13.28,0.042,153.4
2021-06-26T05:19:03,42.805,6.029,-0.016,-0.035,-0.038,102.0,103.0,100.0,13.3,1505.2,329.1,-0.7,1.8,2470.496,13.28,0.038,204.6
2021-06-26T05:22:03,42.805,6.029,0.01,-0.047,-0.025,103.0,102.0,102.0,13.4,1505.2,326.9,-0.7,1.8,2470.478,13.28,0.048,168.0
2021-06-26T05:25:03,42.805,6.029,0.013,-0.016,-0.013,104.0,103.0,100.0,13.4,1505.2,325.0,-0.7,1.8,2470.487,13.28,0.02,140.9
2021-06-26T05:28:03,42.805,6.029,-0.001,-0.025,-0.003,104.0,102.0,101.0,13.4,1505.2,328.0,-0.7,1.8,2470.488,13.28,0.025,182.3
2021-06-26T05:31:03,42.805,6.029,0.011,-0.03,-0.006,102.0,102.0,102.0,13.4,1505.2,328.0,-0.8,1.8,2470.537,13.28,0.031,159.9
2021-06-26T05:34:03,42.805,6.029,0.001,-0.023,0.008,102.0,103.0,101.0,13.3,1505.2,328.1,-0.7,1.8,2470.525,13.28,0.023,177.5
2021-06-26T05:37:03,42.805,6.029,0.018,-0.029,-0.02,103.0,103.0,102.0,13.4,1505.2,326.4,-0.8,1.8,2470.517,13.28,0.034,148.2
2021-06-26T05:40:03,42.805,6.029,0.019,-0.013,-0.024,102.0,102.0,101.0,13.4,1505.2,329.8,-0.7,1.8,2470.569,13.28,0.023,124.4
2021-06-26T05:43:03,42.805,6.029,-0.003,-0.015,-0.013,103.0,103.0,101.0,13.4,1505.2,325.7,-0.8,1.8,2470.526,13.28,0.015,191.3
2021-06-26T05:46:03,42.805,6.029,0.008,-0.026,-0.013,102.0,103.0,101.0,13.4,1505.2,327.4,-0.7,1.8,2470.514,13.28,0.027,162.9
2021-06-26T05:49:03,42.805,6.029,0.001,-0.038,-0.035,102.0,103.0,101.0,13.4,1505.2,327.4,-0.8,1.9,2470.52,13.28,0.038,178.5
2021-06-26T05:52:03,42.805,6.029,0.018,-0.026,-0.012,102.0,105.0,101.0,13.4,1505.2,328.1,-0.8,1.8,2470.535,13.28,0.031,145.3
2021-06-26T05:55:03,42.805,6.029,0.027,-0.019,-0.005,103.0,102.0,101.0,13.4,1505.2,325.7,-0.7,1.8,2470.522,13.28,0.033,125.1
2021-06-26T05:58:03,42.805,6.029,0.022,-0.026,-0.001,102.0,105.0,100.0,13.4,1505.2,325.3,-0.7,1.8,2470.528,13.28,0.034,139.8
2021-06-26T06:04:03,42.805,6.029,0.013,-0.025,-0.015,103.0,102.0,100.0,13.4,1505.2,328.5,-0.8,1.9,2470.587,13.28,0.028,152.5
2021-06-26T06:07:03,42.805,6.029,0.013,-0.031,-0.017,103.0,102.0,101.0,13.4,1505.2,328.1,-0.8,1.8,2470.542,13.28,0.033,157.3
2021-06-26T06:10:03,42.805,6.029,0.009,-0.041,0.018,103.0,102.0,102.0,13.4,1505.2,327.8,-0.7,1.9,2470.565,13.28,0.041,167.6
2021-06-26T06:13:03,42.805,6.029,0.0,-0.001,-0.033,102.0,103.0,102.0,13.4,1505.2,329.0,-0.8,1.8,2470.548,13.28,0.001,180.0
2021-06-26T06:16:03,42.805,6.029,0.01,-0.022,-0.002,103.0,102.0,101.0,13.4,1505.2,329.9,-0.7,1.9,2470.521,13.28,0.024,155.6
2021-06-26T06:19:03,42.805,6.029,0.017,-0.036,-0.003,102.0,102.0,100.0,13.4,1505.2,329.3,-0.8,1.8,2470.535,13.28,0.039,154.7
2021-06-26T06:22:03,42.805,6.029,0.017,-0.033,-0.033,103.0,104.0,101.0,13.4,1505.2,328.4,-0.7,1.8,2470.563,13.28,0.037,152.7
2021-06-26T06:25:03,42.805,6.029,0.026,-0.041,-0.047,103.0,103.0,102.0,13.3,1505.2,328.3,-0.7,1.8,2470.515,13.28,0.048,147.6
2021-06-26T06:28:03,42.805,6.029,0.012,-0.04,-0.021,102.0,102.0,101.0,13.3,1505.2,328.9,-0.8,1.9,2470.533,13.28,0.041,163.3
2021-06-26T06:31:03,42.805,6.029,-0.005,-0.028,0.017,102.0,102.0,105.0,13.4,1505.2,326.6,-0.7,1.8,2470.551,13.28,0.028,190.1
2021-06-26T06:34:03,42.805,6.029,0.003,-0.032,-0.012,102.0,104.0,102.0,13.4,1505.2,326.5,-0.8,1.8,2470.589,13.28,0.032,174.6
2021-06-26T06:37:03,42.805,6.029,0.02,-0.04,-0.032,103.0,102.0,102.0,13.4,1505.2,326.4,-0.8,1.8,2470.544,13.28,0.044,153.4
2021-06-26T06:40:03,42.805,6.029,0.0,-0.019,0.0,102.0,102.0,102.0,13.3,1505.2,326.3,-0.8,1.8,2470.522,13.28,0.019,180.0
2021-06-26T06:43:03,42.805,6.029,-0.005,-0.05,-0.007,103.0,102.0,101.0,13.4,1505.2,328.3,-0.8,1.9,2470.576,13.28,0.05,185.7
2021-06-26T06:46:03,42.805,6.029,0.031,-0.04,-0.035,102.0,103.0,101.0,13.4,1505.2,328.1,-0.8,1.8,2470.545,13.28,0.05,142.2
2021-06-26T06:49:03,42.805,6.029,0.022,-0.041,-0.01,103.0,102.0,103.0,13.3,1505.2,328.2,-0.8,1.8,2470.552,13.28,0.046,151.8
2021-06-26T06:52:03,42.805,6.029,-0.016,-0.026,-0.012,104.0,102.0,102.0,13.4,1505.2,329.0,-0.8,1.8,2470.502,13.28,0.03,211.6
2021-06-26T06:55:03,42.805,6.029,-0.001,-0.026,0.0,102.0,103.0,101.0,13.4,1505.2,324.8,-0.8,1.8,2470.543,13.28,0.026,182.2
2021-06-26T06:58:03,42.805,6.029,-0.004,-0.03,-0.01,102.0,102.0,102.0,13.4,1505.2,325.8,-0.8,1.8,2470.517,13.28,0.03,187.6
2021-06-26T07:04:03,42.805,6.029,0.023,-0.027,-0.024,103.0,102.0,102.0,13.4,1505.2,328.2,-0.7,1.8,2470.563,13.28,0.035,139.6
2021-06-26T07:07:03,42.805,6.029,0.016,-0.035,-0.032,103.0,103.0,101.0,13.4,1505.2,325.0,-0.8,1.8,2470.579,13.28,0.038,155.4
2021-06-26T07:10:03,42.805,6.029,-0.007,-0.04,-0.007,103.0,102.0,101.0,13.4,1505.2,328.9,-0.7,1.8,2470.561,13.28,0.04,189.9
2021-06-26T07:13:03,42.805,6.029,-0.001,-0.023,-0.012,103.0,103.0,101.0,13.4,1505.2,328.0,-0.8,1.8,2470.56,13.28,0.023,182.5
2021-06-26T07:16:03,42.805,6.029,-0.003,-0.023,0.009,103.0,102.0,100.0,13.4,1505.2,330.1,-0.8,1.9,2470.632,13.28,0.023,187.4
2021-06-26T07:19:03,42.805,6.029,-0.002,-0.023,-0.021,103.0,103.0,102.0,13.4,1505.2,327.4,-0.8,1.8,2470.54,13.28,0.023,185.0
2021-06-26T07:22:03,42.805,6.029,0.001,-0.025,-0.022,103.0,102.0,101.0,13.4,1505.2,328.4,-0.8,1.8,2470.551,13.28,0.025,177.7
2021-06-26T07:25:03,42.805,6.029,0.013,-0.028,-0.012,102.0,102.0,101.0,13.4,1505.2,327.5,-0.8,1.8,2470.579,13.28,0.03,155.1
2021-06-26T07:28:03,42.805,6.029,0.012,-0.014,-0.001,103.0,103.0,102.0,13.3,1505.2,328.6,-0.7,1.8,2470.576,13.28,0.018,139.4
2021-06-26T07:31:03,42.805,6.029,0.032,-0.041,-0.003,103.0,102.0,102.0,13.4,1505.2,326.7,-0.8,1.8,2470.544,13.28,0.052,142.0
2021-06-26T07:34:03,42.805,6.029,0.008,-0.026,-0.038,103.0,103.0,102.0,13.4,1505.2,328.0,-0.8,1.8,2470.614,13.28,0.027,162.9
2021-06-26T07:37:03,42.805,6.029,0.008,-0.015,0.004,103.0,103.0,101.0,13.4,1505.2,328.1,-0.7,1.8,2470.504,13.28,0.017,151.9
2021-06-26T07:40:03,42.805,6.029,0.01,-0.002,0.015,103.0,103.0,102.0,13.4,1505.2,329.4,-0.7,1.8,2470.555,13.28,0.01,101.3
2021-06-26T07:43:03,42.805,6.029,0.019,-0.016,-0.025,102.0,102.0,103.0,13.3,1505.2,324.9,-0.7,1.8,2470.525,13.28,0.024,130.1
2021-06-26T07:46:03,42.805,6.029,0.012,-0.039,-0.014,102.0,104.0,101.0,13.4,1505.2,327.2,-0.8,1.8,2470.561,13.28,0.04,162.9
2021-06-26T07:49:03,42.805,6.029,0.007,-0.024,-0.007,103.0,103.0,102.0,13.4,1505.2,326.7,-0.8,1.8,2470.534,13.28,0.025,163.7
2021-06-26T07:52:03,42.805,6.029,0.006,-0.026,-0.038,103.0,102.0,102.0,13.4,1505.2,329.5,-0.7,1.8,2470.579,13.28,0.026,167.0
2021-06-26T07:55:03,42.805,6.029,0.003,-0.042,-0.042,103.0,103.0,101.0,13.3,1505.2,326.2,-0.8,1.8,2470.53,13.28,0.042,175.9
2021-06-26T07:58:03,42.805,6.029,0.002,-0.033,-0.025,104.0,101.0,101.0,13.4,1505.2,328.1,-0.8,1.8,2470.557,13.28,0.033,176.5
2021-06-26T08:04:03,42.805,6.029,0.005,-0.039,-0.018,102.0,103.0,102.0,13.4,1505.2,326.4,-0.7,1.8,2470.588,13.28,0.039,172.7
2021-06-26T08:07:03,42.805,6.029,-0.002,-0.013,-0.025,103.0,102.0,102.0,13.4,1505.2,325.4,-0.8,1.8,2470.566,13.28,0.013,188.7
2021-06-26T08:10:03,42.805,6.029,0.01,-0.031,-0.006,103.0,104.0,102.0,13.4,1505.2,328.5,-0.8,1.8,2470.577,13.28,0.032,162.1
2021-06-26T08:13:03,42.805,6.029,0.004,-0.024,0.037,103.0,103.0,101.0,13.4,1505.2,330.3,-0.7,1.8,2470.579,13.28,0.024,170.5
2021-06-26T08:16:03,42.805,6.029,-0.007,-0.03,0.0,103.0,105.0,102.0,13.3,1505.2,328.6,-0.8,1.9,2470.539,13.28,0.03,193.1
2021-06-26T08:19:03,42.805,6.029,0.01,-0.021,0.011,103.0,102.0,102.0,13.4,1505.2,325.5,-0.8,1.9,2470.548,13.28,0.023,154.5
2021-06-26T08:22:03,42.805,6.029,0.025,-0.04,-0.005,104.0,104.0,101.0,13.4,1505.2,326.5,-0.7,1.8,2470.567,13.28,0.047,148.0
2021-06-26T08:25:03,42.805,6.029,0.006,-0.035,-0.048,103.0,103.0,101.0,13.4,1505.2,328.0,-0.7,1.8,2470.563,13.28,0.035,170.3
2021-06-26T08:28:03,42.805,6.029,0.01,-0.036,-0.018,103.0,103.0,102.0,13.4,1505.2,328.9,-0.7,1.8,2470.555,13.28,0.037,164.5
2021-06-26T08:31:03,42.805,6.029,0.014,-0.026,0.0,103.0,102.0,102.0,13.3,1505.2,325.5,-0.7,1.8,2470.57,13.28,0.029,151.7
2021-06-26T08:34:03,42.805,6.029,0.007,-0.014,-0.003,102.0,103.0,102.0,13.4,1505.2,329.7,-0.8,1.9,2470.539,13.28,0.015,153.4
2021-06-26T08:37:03,42.805,6.029,0.024,-0.052,-0.041,103.0,103.0,102.0,13.3,1505.2,328.4,-0.8,1.8,2470.566,13.28,0.057,155.2
2021-06-26T08:40:03,42.805,6.029,0.017,-0.02,-0.041,104.0,104.0,101.0,13.4,1505.2,324.8,-0.7,1.8,2470.516,13.28,0.026,139.6
2021-06-26T08:43:03,42.805,6.029,0.019,-0.051,-0.025,103.0,102.0,101.0,13.4,1505.2,326.4,-0.8,1.8,2470.572,13.28,0.054,159.6
2021-06-26T08:46:03,42.805,6.029,0.004,-0.024,-0.012,103.0,103.0,102.0,13.4,1505.2,325.8,-0.7,1.8,2470.529,13.28,0.024,170.5
2021-06-26T08:49:03,42.805,6.029,-0.013,-0.021,-0.011,103.0,102.0,102.0,13.3,1505.2,326.3,-0.8,1.9,2470.516,13.28,0.024,211.8
2021-06-26T08:52:03,42.805,6.029,0.007,-0.035,-0.003,103.0,103.0,102.0,13.4,1505.2,328.7,-0.7,1.9,2470.566,13.28,0.035,168.7
2021-06-26T08:55:03,42.805,6.029,0.0,-0.021,-0.023,103.0,102.0,101.0,13.4,1505.2,329.1,-0.7,1.8,2470.539,13.28,0.021,180.0
2021-06-26T08:58:03,42.805,6.029,0.008,-0.02,0.022,103.0,101.0,101.0,13.4,1505.2,328.0,-0.8,1.8,2470.526,13.28,0.021,158.2
2021-06-26T09:04:03,42.805,6.029,0.006,-0.043,-0.01,103.0,103.0,101.0,13.4,1505.2,326.1,-0.7,1.8,2470.554,13.28,0.043,172.1
2021-06-26T09:07:03,42.805,6.029,0.012,-0.05,-0.012,102.0,103.0,102.0,13.4,1505.2,327.8,-0.8,1.8,2470.558,13.28,0.051,166.5
2021-06-26T09:10:03,42.805,6.029,0.013,-0.051,-0.028,103.0,103.0,101.0,13.3,1505.2,324.4,-0.7,1.8,2470.566,13.28,0.052,165.7
2021-06-26T09:13:03,42.805,6.029,-0.006,-0.035,-0.013,102.0,102.0,102.0,13.3,1505.2,325.1,-0.7,1.8,2470.544,13.28,0.035,189.7
2021-06-26T09:16:03,42.805,6.029,-0.005,-0.039,-0.015,102.0,103.0,101.0,13.3,1505.2,327.4,-0.7,1.8,2470.573,13.28,0.039,187.3
2021-06-26T09:19:03,42.805,6.029,0.007,-0.01,-0.003,103.0,103.0,101.0,13.3,1505.2,326.7,-0.8,1.8,2470.543,13.28,0.012,145.0
2021-06-26T09:22:03,42.805,6.029,-0.001,-0.031,-0.007,102.0,103.0,101.0,13.4,1505.2,327.3,-0.8,1.8,2470.499,13.28,0.031,181.8
2021-06-26T09:25:03,42.805,6.029,0.029,-0.035,-0.011,103.0,103.0,101.0,13.3,1505.2,329.7,-0.7,1.8,2470.529,13.28,0.045,140.4
2021-06-26T09:28:03,42.805,6.029,0.002,-0.041,-0.021,103.0,102.0,101.0,13.4,1505.2,327.1,-0.7,1.9,2470.533,13.28,0.041,177.2
2021-06-26T09:31:03,42.805,6.029,-0.003,-0.031,-0.033,102.0,103.0,101.0,13.4,1505.2,326.1,-0.8,1.8,2470.54,13.28,0.031,185.5
2021-06-26T09:34:03,42.805,6.029,0.002,-0.044,-0.022,102.0,103.0,101.0,13.4,1505.2,329.4,-0.8,1.8,2470.494,13.28,0.044,177.4
2021-06-26T09:37:03,42.805,6.029,0.028,-0.045,-0.004,103.0,103.0,101.0,13.4,1505.2,324.5,-0.7,1.8,2470.502,13.28,0.053,148.1
2021-06-26T09:40:03,42.805,6.029,-0.012,-0.022,-0.051,103.0,103.0,101.0,13.4,1505.2,324.7,-0.8,1.8,2470.506,13.28,0.025,208.6
2021-06-26T09:43:03,42.805,6.029,-0.002,-0.017,-0.012,104.0,102.0,102.0,13.4,1505.2,324.7,-0.7,1.8,2470.504,13.28,0.017,186.7
2021-06-26T09:46:03,42.805,6.029,0.012,-0.024,-0.025,101.0,102.0,102.0,13.4,1505.2,328.5,-0.7,1.8,2470.504,13.28,0.026,153.4
2021-06-26T09:49:03,42.805,6.029,0.02,-0.042,-0.02,103.0,102.0,101.0,13.3,1505.2,329.0,-0.8,1.8,2470.484,13.28,0.046,154.5
2021-06-26T09:52:03,42.805,6.029,-0.006,-0.051,-0.045,102.0,103.0,102.0,13.3,1505.2,329.0,-0.8,1.8,2470.467,13.28,0.051,186.7